Overview Statistics Trail Chart Weather Telemetry Raw packets
 

This is the latest recevied weather packets stored in our database for station/object KD0MAC. If no packets are shown the sender has not sent any weather packets the latest 10 day(s).

<< 78 79 80 81 82 83 84 >>
Time Temp. Humidity Pressure Rain* Wind** Luminosity Snow
1788196630 30° C 59% 1016.3 hPa 0 mm - 534 W/m² -
1788196330 30° C 55% 1016.3 hPa 0 mm - 524 W/m² -
1788196030 30° C 60% 1016.3 hPa 0 mm - 518 W/m² -
1788195731 29.44° C 60% 1015.9 hPa 0 mm - 510 W/m² -
1788195431 30° C 57% 1015.9 hPa 0 mm - 503 W/m² -
1788195130 30° C 57% 1016.3 hPa 0 mm - 495 W/m² -
1788194830 30° C 57% 1016.3 hPa 0 mm - 490 W/m² -
1788194531 30° C 61% 1016.3 hPa 0 mm - 481 W/m² -
1788194229 28.89° C 59% 1016.3 hPa 0 mm - 471 W/m² -
1788193930 28.89° C 62% 1016.3 hPa 0 mm - 466 W/m² -
1788193630 28.89° C 63% 1015.9 hPa 0 mm - 456 W/m² -
1788193330 28.89° C 61% 1015.9 hPa 0 mm - 447 W/m² -
1788193030 28.89° C 61% 1015.9 hPa 0 mm - 440 W/m² -
1788192730 28.89° C 60% 1015.9 hPa 0 mm - 430 W/m² -
1788192430 28.33° C 62% 1015.9 hPa 0 mm - 420 W/m² -
1788192130 28.33° C 63% 1015.9 hPa 0 mm - 411 W/m² -
1788191832 28.33° C 63% 1015.9 hPa 0 mm - 400 W/m² -
1788191531 28.33° C 63% 1015.9 hPa 0 mm - 390 W/m² -
1788191229 27.78° C 64% 1015.6 hPa 0 mm - 378 W/m² -
1788190930 27.78° C 64% 1015.6 hPa 0 mm - 366 W/m² -
1788190631 27.78° C 63% 1015.6 hPa 0 mm - 355 W/m² -
1788190330 27.22° C 63% 1015.6 hPa 0 mm - 345 W/m² -
1788190030 27.22° C 62% 1015.6 hPa 0 mm - 354 W/m² -
1788189730 26.67° C 65% 1015.6 hPa 0 mm - 342 W/m² -
1788189429 27.22° C 63% 1015.6 hPa 0 mm - 330 W/m² -

* Rain latest hour (hover to see other rain measurements)
** Current wind speed in m/s (hover to see current wind gust speed)